{"data":{"norad_id":62230,"epoch":"2026-09-21T07:49:23.698272Z","epoch_age_seconds":106282,"freshness":"FRESH","line1":"1 62230U 24231N   26264.32596873  .00141737  00000+0  11525-2 0  9996","line2":"2 62230  53.1573 217.1914 0001362 157.8502 202.2576 15.69760708104136","mean_motion":15.69760708,"eccentricity":0.0001362,"inclination_deg":53.1573,"raan_deg":217.1914,"arg_perigee_deg":157.8502,"mean_anomaly_deg":202.2576,"bstar":0.0011525,"rev_number":10413,"period_min":91.7337268452,"perigee_km":358.66397016016,"apogee_km":360.49932471973,"semimajor_km":6737.7186474399,"source":"CELESTRAK","updated_at":"2026-09-22T09:00:49.563874Z"}}